Terminal Aerodrome Forecast
Issued by NWS

Home | Current Version | Previous Version | Graphics & Text | Print | Product List | Glossary On
Versions: 1 2 3 4 5 6 7 8 9 10 11 12
000
FTUS45 KGGW 251720
TAFSDY
TAF
KSDY 251720Z 2518/2618 16012KT P6SM SCT200
     FM252100 19010KT P6SM FEW140 SCT200
     FM260000 16011KT P6SM FEW200
     FM260300 15007KT P6SM FEW200
      AMD LTD TO CLD VIS AND WIND=

USA.gov is the U.S. government's official web portal to all federal, state and local government web resources and services.